Showing default

COSMOS 1461, 14064

Orbit data source: Space-Track

COSMOS 1461, 14064 is a payload satellite owned by VMF (CIS) in LEO that was launched on Sat, 07 May 1983 UTC via a TSIKLON-2 launch vehicle from the Tyuratam Missile And Space Complex (TTMTR). Payload-class satellites include a variety of spacecraft equipped with specific instruments for various scientific and technological missions. These include communications satellites like Starlink; space stations such as the ISS; scientific satellites like the Hubble; Earth observation satellites from companies like Planet Labs, Umbra, and HawkEye 360; GPS; miniature CubeSats for education and research; and military/defense satellites.

Loading next visibility...
Identifier
14064, 1983-044A
Orbit
LEO
Country
Flag of CISCIS
Related business
Manufacturer
TSSKB/KOMET
Mission
Spacecraft
Bus & Motor
US-P, Unknown motor
Mass
3,300 kg wet, ~3,000 kg dry
Launch date (UTC)
1983-05-07 (43 years ago)
Launch vehicle
TSIKLON-2
Launch site
Tyuratam Missile And Space Complex (TTMTR)
Object type
Payload
Rocket body
Debris
Shape & HBR
Unknown
Radar Cross Section
Large (>1 m²)

Expand to show TLE details & history
Last TLE update: 11 hours ago

TLE from 11 hours ago
0 COSMOS 1461
1 14064U 83044A   26150.83450784  .00025422  00000-0  64764-3 0  9992
2 14064  64.9863 108.4878 0040466 203.9909 155.9345 15.38659499214470
Epoch: 2026-05-30T20:01Z
TLE epoch observation values (Epoch: 2026-05-30T20:01:41.477Z)
Latitude
-0.00002°
Longitude
-80.27988°
Altitude
477.391 km
Speed
7.613 km/s
True Right ascension
07h 13m 57s
True Declination
0° 00' 00"
Sunlit
Object was in daylight at epoch
Visualization orbit readout
Latitude
Unknown
Longitude
Unknown
Altitude
Unknown
Speed
Unknown
Apparent Right ascension
Unknown
Apparent Declination
Unknown
Sunlit
N/A
Visualization observer readout
Local Sidereal Time
16:44:32
Azimuth
Unknown
Elevation
Unknown
Doppler factor
Unknown
Orbital elements
Apogee altitude
476.207 km
Perigee altitude
420.957 km
Semi-major axis
6,826.719 km
Eccentricity
0.00405
Inclination
64.9863°
RAAN
108.4878°
Arg. of periapsis
203.9909°
True anomaly
156.12272°
Mean anomaly
155.9345°
Eccentric anomaly
156.0287°
Mean motion
3.84791 °/min
Orbital period
93.56 mins
BSTAR
0.00064764

Documentation

Showing up to 5 results
|